Weather in Kulebaki

Russia / Nizhny Novgorod Oblast'     55°25′46″N   42°30′44″E
temp.,
°C
wind,
m/s
gust,
m/s
humid.,
%
clouds,
%
prec.,
mm/h
press.,
hPa
HPBL,
m
27 january, thu
thu2700:00−18sw1110093 0.0 101714
03:00−18ssw1110078 0.1 101711
06:00−18ssw129993 0.1 101853
09:00−18ssw2499100 0.1 101892
12:00−13sw2392100 0.1 1018261
15:00−10ssw2491100 0.1 1018356
18:00−16s249880 0.0 101868
21:00−17s289883 0.0 1017124
28 january, fri
fri2800:00−17s289798 0.0 1016160
03:00−16s399697 0.0 1016193
06:00−17sse399686 0.0 1015194
09:00−16sse3119598 0.0 1014269
12:00−10s4128970 0.0 1013409
15:00−8sse41289100 0.0 1012584
18:00−9sse41391100 0.0 1011448
21:00−9sse41490100 0.0 1010459
29 january, sat
sat2900:00−8sse41288100 0.0 1009449
03:00−8se41193100 0.2 1008428
06:00−8se3994100 0.5 1006386
09:00−8se3895100 0.9 1006344
12:00−5sse3693100 0.6 1005366
15:00−3sse269486 0.8 1004399
18:00−4sse3897100 0.3 1004320
21:00−3s3996100 1.1 1002398
30 january, sun
sun3000:00−4s2797100 0.3 1001213
03:00−3ssw279789 0.8 1000260
06:00−5s279883 0.3 998155
09:00−6sw499497 0.5 997453
12:00−6s41290100 0.1 996560
15:00−6s51288100 0.1 994668
18:00−5sse51393100 0.4 993929
21:00−5sse5139199 0.6 992827
31 january, mon
mon3100:00−5sse51392100 0.1 991683
03:00−4sse5139298 0.3 990618
06:00−2s51292100 0.1 990904
09:00−1s51291100 0.1 990793
12:00−1s51295100 0.4 991864
15:000s51089100 1.0 991994
18:00−2s41088100 0.3 992580
21:00−3s41091100 0.4 993580